Wind_Speed
47 45 44 42 40 40 40 39 38 36 36 35 35 35 34 33 31 30 29 28 26 24 23 22 21 20 20 21 21 21 21 21 20 18 17 17 18 20 22 25 25 22 20 20 17 14 12 10 10 12 13 15 16 17 19 20 21 24 26 27 29 31
46 45 42 39 38 38 38 37 36 35 35 35 35 35 34 32 30 29 28 27 25 24 22 21 20 20 19 21 21 21 21 20 19 18 18 19 20 21 23 25 26 23 21 20 18 15 12 10 10 10 12 14 16 17 19 20 21 23 25 27 29 31
45 42 39 37 37 37 37 36 35 34 35 35 35 35 33 31 30 29 28 26 25 23 22 20 20 19 19 21 22 21 20 20 19 19 19 20 20 21 22 24 25 23 21 19 19 15 12 10 9 9 11 13 15 17 18 19 21 22 24 26 28 30
42 39 36 35 36 36 36 35 34 34 35 35 35 34 32 31 29 29 27 25 24 23 21 20 20 20 20 21 22 21 20 20 19 19 19 19 18 18 20 22 23 23 22 18 19 17 13 10 10 9 10 12 14 16 18 19 20 21 22 25 27 29
40 37 35 35 35 35 35 34 34 34 34 34 34 34 31 30 29 28 27 25 24 22 21 20 20 20 20 21 22 21 21 20 19 18 18 17 17 17 18 20 20 21 21 18 18 18 14 11 10 11 11 12 14 15 17 19 20 20 21 23 25 27
40 37 35 34 35 35 35 35 34 33 33 33 34 33 31 30 30 28 26 24 23 22 21 21 20 20 20 21 22 22 21 20 19 18 17 17 17 17 17 18 18 19 19 18 17 18 15 12 11 12 12 12 13 15 17 18 19 20 21 22 23 25
40 37 35 34 34 35 35 34 34 33 33 33 34 32 30 30 30 28 26 24 23 22 21 21 20 20 21 22 22 22 22 21 20 19 18 17 17 17 18 18 17 17 18 18 17 17 15 14 14 13 13 13 14 16 17 18 19 20 21 21 22 24
41 38 36 35 35 34 34 34 33 32 32 33 33 31 30 30 30 28 26 25 23 22 22 22 21 21 21 22 23 23 23 22 21 20 19 18 18 19 19 19 18 16 17 18 18 18 16 15 15 14 14 14 15 16 17 19 20 21 21 21 22 23
43 40 38 37 37 35 34 34 32 32 33 33 32 30 30 31 29 27 26 25 23 21 22 22 21 21 22 23 24 24 24 23 21 20 20 19 19 20 20 20 20 18 17 17 18 19 17 16 16 15 15 15 15 16 17 19 21 22 21 21 21 22
43 41 40 39 39 37 35 34 33 33 33 33 32 31 31 31 29 26 25 25 23 22 22 22 22 22 23 24 24 25 25 24 22 20 20 20 20 21 22 22 22 21 19 18 18 20 19 17 17 16 16 16 16 16 18 20 22 23 22 22 21 23
43 42 41 41 40 37 35 34 33 34 34 33 32 32 32 30 28 26 25 25 23 22 22 23 23 23 24 24 25 26 26 25 22 21 20 21 22 22 23 23 24 24 22 20 19 20 21 20 19 18 18 17 17 17 19 21 23 24 23 22 22 22
43 43 43 43 42 38 35 34 34 35 34 34 33 33 32 29 27 25 25 25 24 23 23 23 24 24 24 25 26 26 26 25 22 21 22 23 24 25 25 25 26 26 26 24 22 21 22 23 22 21 20 19 19 19 20 22 24 25 24 23 23 23
44 44 44 45 44 40 36 35 35 37 36 35 35 34 32 29 27 26 25 25 24 24 24 24 24 25 25 25 27 27 26 25 23 22 24 25 26 27 28 28 28 28 28 27 25 24 23 24 24 23 22 21 21 21 21 23 24 26 25 24 24 23
44 44 44 45 44 41 39 38 38 39 38 37 37 35 32 29 27 27 26 25 25 25 25 25 25 25 25 25 26 26 26 25 24 24 26 27 28 28 29 29 29 29 29 29 28 27 25 25 25 25 24 23 23 23 24 24 25 26 26 25 25 24
44 45 45 44 44 42 42 43 42 41 40 40 38 35 32 29 29 28 27 26 26 26 26 26 26 26 26 26 26 26 26 25 25 26 27 28 28 28 29 29 29 29 29 28 28 27 26 25 26 25 24 24 25 26 27 27 27 27 26 26 25 24
45 46 46 46 45 45 46 46 45 43 42 42 39 36 33 30 30 31 29 28 27 27 27 27 27 27 27 27 27 27 27 26 25 27 27 26 26 27 27 28 28 27 27 26 26 26 26 26 26 25 25 26 27 29 29 29 29 28 27 26 24 25
45 46 46 46 46 47 48 48 46 45 44 43 41 38 35 32 32 33 31 29 28 28 28 28 28 28 28 28 28 28 27 26 26 27 27 26 25 25 26 26 26 26 26 25 24 24 24 24 25 24 25 27 28 29 30 30 30 28 27 26 25 26
45 45 46 46 47 48 49 48 46 46 45 43 42 40 38 36 35 35 33 31 30 30 29 29 29 30 30 29 29 28 28 27 27 28 28 26 26 25 25 25 25 25 25 25 25 24 24 24 24 23 25 26 27 28 29 30 30 29 27 26 26 27
43 43 44 45 46 47 48 47 46 45 44 43 43 42 41 40 38 36 35 33 32 31 31 30 30 31 31 30 29 28 28 28 29 30 29 27 26 26 26 25 24 24 24 23 24 24 24 24 23 23 25 26 26 27 29 30 30 29 27 28 27 29
40 41 42 43 44 45 46 46 45 44 44 44 44 44 44 43 40 37 36 35 33 32 32 31 31 32 33 31 29 29 29 30 30 31 30 28 28 28 27 25 23 23 23 22 23 23 23 22 22 23 25 26 26 27 29 29 29 29 29 30 29 30
39 39 40 41 41 42 43 43 43 43 44 44 45 45 45 44 42 39 38 37 36 34 34 33 33 34 33 31 30 30 31 32 32 32 32 30 29 29 27 23 21 21 20 20 20 21 21 21 22 23 24 26 27 28 29 28 28 29 30 31 29 31
37 37 37 38 39 39 40 41 41 41 42 44 44 44 45 44 43 41 40 39 38 37 36 35 34 35 34 33 32 32 32 33 34 34 33 30 29 28 27 24 24 22 20 19 19 20 21 22 23 23 23 25 27 27 28 28 28 30 31 30 29 32
35 35 35 35 37 38 38 38 39 39 40 42 42 43 44 45 44 43 42 41 40 40 39 37 35 36 36 34 33 33 33 35 36 35 33 32 30 28 28 28 27 26 24 23 23 23 24 23 23 22 23 26 27 27 27 27 28 30 30 28 29 31
31 31 32 33 34 35 36 37 37 37 38 39 40 41 43 44 44 45 44 43 42 42 42 39 37 38 37 36 35 35 35 37 38 36 34 34 32 31 31 31 30 28 27 27 27 26 25 24 24 24 24 27 28 27 27 27 29 30 28 27 29 30
26 26 28 29 31 32 33 34 34 35 36 37 38 39 40 42 43 45 45 45 44 43 44 43 41 41 40 38 37 36 37 39 39 37 36 36 35 33 32 32 33 32 30 27 27 26 26 26 26 25 26 28 29 28 27 28 30 28 26 27 28 28
23 24 26 27 28 29 30 31 31 33 35 36 37 37 38 40 41 43 45 46 46 45 46 47 46 45 43 41 39 38 39 40 40 38 36 36 36 34 31 31 34 38 36 30 26 26 27 28 28 27 28 30 30 29 27 28 30 28 27 29 28 28
23 24 25 26 26 27 28 29 30 31 33 34 35 36 37 39 40 42 44 46 46 46 48 49 50 49 47 43 40 40 40 41 41 39 36 36 37 36 31 28 30 37 40 36 31 30 29 29 28 28 29 30 31 30 28 28 30 29 29 29 29 29
24 24 24 25 25 25 26 27 28 29 30 31 33 34 36 38 40 42 44 45 46 47 49 51 54 53 48 45 41 40 40 41 41 38 37 37 38 37 33 27 27 32 37 39 37 34 31 29 29 29 30 31 33 32 29 29 31 31 31 30 30 31
23 23 23 23 22 23 24 24 25 26 27 28 30 32 34 36 39 42 44 44 45 46 49 53 56 53 49 46 43 41 41 42 41 39 38 39 40 39 35 31 29 31 34 37 37 34 32 30 30 31 32 32 33 32 30 30 32 33 32 32 32 33
22 22 21 21 20 21 22 23 24 24 25 26 27 29 31 34 37 40 43 44 45 46 48 52 54 52 50 49 46 43 42 42 42 40 38 38 40 39 37 34 31 31 33 34 34 34 34 34 33 34 35 35 34 32 32 33 33 33 34 33 34 34
21 21 20 19 19 20 21 22 23 23 24 25 26 28 29 32 36 39 42 43 44 46 47 50 51 49 48 49 48 46 44 43 43 41 38 38 40 39 38 36 33 31 32 32 33 35 36 36 36 37 37 36 35 34 34 35 34 34 35 35 36 36
21 20 20 19 19 20 20 21 22 23 23 24 25 27 29 31 35 38 40 41 44 46 47 48 49 48 46 47 48 47 46 45 44 42 40 40 42 42 41 39 36 34 34 34 34 35 37 38 38 38 37 36 36 35 36 37 37 36 36 36 37 38
21 20 20 20 20 20 20 21 22 22 23 23 24 26 28 31 34 36 37 39 43 46 47 47 48 49 48 48 47 46 46 47 46 43 41 41 44 45 45 43 40 37 37 38 38 37 37 39 39 39 37 36 37 38 39 41 40 38 36 37 38 39
21 21 21 21 21 20 20 20 22 22 22 22 23 25 27 29 32 34 35 37 41 45 46 47 48 50 51 50 47 46 46 47 47 45 43 43 44 46 46 44 42 40 38 38 39 39 39 40 39 39 39 38 38 40 41 42 40 37 36 37 38 39
20 20 20 20 20 19 18 20 21 22 22 22 23 24 25 27 30 32 33 36 40 43 45 46 47 49 51 52 49 47 46 46 46 46 45 45 46 46 46 45 43 41 40 38 39 41 42 41 40 40 41 41 41 42 43 43 39 36 35 35 36 38
18 18 18 18 18 17 17 19 20 21 21 21 22 23 24 26 28 30 32 35 38 41 42 43 45 48 51 52 51 48 47 47 47 47 47 47 47 48 47 47 45 44 43 43 43 44 45 44 43 43 43 44 45 46 46 44 41 37 35 34 36 39
16 17 17 16 16 16 17 19 20 20 20 21 22 23 24 25 26 28 30 33 36 37 39 41 43 45 48 51 52 50 48 48 48 48 49 49 49 50 50 50 49 48 48 48 47 47 46 45 44 44 45 47 48 48 47 46 43 40 38 38 40 42
Wind_Direction
281 282 283 283 282 280 278 278 278 279 278 278 278 279 279 279 280 280 280 281 283 283 282 282 281 278 275 273 268 265 265 266 271 276 274 273 281 288 288 287 289 291 282 268 269 278 280 287 295 300 307 316 323 328 333 338 341 344 348 351 354 357
280 281 281 280 278 276 274 275 275 275 274 275 276 276 276 278 278 278 279 280 281 280 279 278 277 274 271 270 265 262 262 264 270 274 274 278 284 286 282 281 284 290 288 270 265 273 274 286 296 297 308 317 325 331 333 335 338 341 343 346 350 353
278 278 278 276 274 273 272 272 272 271 271 273 274 274 275 276 277 277 277 278 278 277 275 274 273 271 268 265 262 259 258 260 267 272 277 283 286 284 276 275 280 289 293 273 260 266 269 285 302 301 311 320 328 334 334 335 336 338 340 342 347 348
275 275 273 272 271 270 269 269 269 269 270 271 271 272 273 275 275 275 275 275 275 273 271 271 269 267 264 261 259 255 254 257 265 273 280 285 287 283 274 274 281 288 293 277 257 259 265 284 304 307 313 320 328 335 337 336 333 334 337 340 343 343
270 270 269 268 267 267 267 267 267 267 269 269 269 270 272 273 274 273 273 272 271 270 268 267 265 263 261 258 255 252 251 255 263 272 277 283 287 283 276 275 281 288 292 280 261 257 262 279 298 305 311 317 323 330 338 338 333 331 333 337 339 340
267 266 265 265 265 265 265 265 266 267 267 267 267 269 270 271 272 272 271 269 267 267 266 264 262 261 259 255 252 249 249 253 260 268 270 278 286 282 274 273 279 289 290 282 268 258 260 273 287 299 307 312 317 324 334 338 335 331 330 333 336 339
264 263 263 263 263 262 263 264 265 265 265 265 266 267 269 269 269 269 268 267 266 265 265 262 260 259 257 253 249 246 247 250 258 263 264 274 283 279 272 268 274 288 290 282 271 258 257 270 280 293 302 308 315 322 330 336 336 332 329 330 333 336
261 261 261 261 260 259 260 262 263 263 263 264 265 266 267 267 267 267 266 266 265 264 264 262 258 257 255 250 246 244 245 250 256 260 264 274 280 279 273 267 270 284 289 283 271 256 256 269 277 288 297 306 316 323 329 333 335 333 329 328 330 334
259 259 259 259 258 257 258 260 261 261 262 263 264 265 265 265 265 265 265 266 264 263 263 261 258 256 254 249 243 242 244 250 256 260 266 273 278 279 276 270 268 277 286 284 272 257 257 268 274 284 293 301 314 323 327 330 331 331 328 325 328 332
259 258 257 257 257 256 256 257 258 260 261 261 263 263 263 264 264 264 264 265 263 261 262 261 258 256 253 248 242 241 244 249 256 261 267 273 276 278 278 274 270 272 279 282 274 260 258 268 275 281 287 296 309 319 325 328 327 327 327 326 326 330
257 256 256 255 255 256 254 253 255 257 258 260 261 261 262 264 264 262 262 263 263 261 260 261 259 256 254 248 242 241 244 249 257 264 269 272 275 277 276 274 271 270 273 277 276 267 262 267 276 280 284 293 304 315 323 328 328 325 325 325 325 327
255 254 254 254 254 254 252 250 252 255 256 258 259 260 261 263 263 261 261 262 262 261 259 260 260 257 254 248 243 242 245 250 257 265 270 271 273 274 274 272 269 269 270 271 274 273 268 266 272 279 283 290 299 309 319 327 328 325 324 324 324 325
254 253 252 253 253 252 249 248 251 253 254 256 258 259 261 262 263 261 260 261 261 261 259 260 260 258 256 250 245 244 246 250 255 263 268 270 271 272 272 271 269 268 269 269 271 272 272 268 269 276 281 287 295 304 313 322 326 324 322 322 322 324
254 253 252 252 252 251 248 248 252 253 252 255 256 258 260 261 261 260 260 260 259 259 259 260 259 258 257 252 247 246 246 249 254 260 266 270 272 272 273 273 272 270 269 269 270 271 272 271 270 274 279 284 292 300 306 314 321 322 320 320 321 322
252 252 252 251 252 252 249 249 252 253 252 253 254 256 258 259 259 258 259 259 258 258 259 259 259 258 256 253 249 245 245 247 252 259 265 269 272 275 277 276 274 272 271 270 270 270 271 271 271 273 277 282 290 296 301 307 313 317 317 318 320 321
251 251 251 251 252 253 251 251 252 253 251 252 253 254 255 256 257 257 257 257 257 256 257 258 259 258 256 253 249 245 243 245 252 259 263 268 273 278 280 280 277 273 271 271 271 270 268 269 271 273 277 283 289 295 300 304 308 312 314 316 317 318
250 250 251 251 251 252 251 251 252 252 251 252 252 252 252 252 254 255 255 255 256 256 256 257 257 256 254 251 247 244 242 243 250 256 260 266 274 279 281 282 280 274 270 271 272 271 269 271 272 276 282 287 292 297 302 304 306 309 312 314 313 316
251 251 251 251 251 251 251 252 252 252 252 252 252 251 251 249 249 251 253 253 254 256 255 255 256 255 253 249 246 244 241 242 248 252 257 266 274 279 282 282 279 275 273 273 272 269 269 272 274 280 287 291 296 300 303 305 306 308 310 312 310 314
251 251 251 251 251 251 252 252 252 252 252 252 251 251 250 247 246 247 249 251 252 254 254 254 255 255 253 249 247 245 241 241 246 250 255 264 271 276 281 281 277 275 275 274 272 269 270 271 275 284 290 293 297 301 303 304 306 307 307 309 308 312
252 252 252 252 252 252 253 253 253 253 252 252 251 250 249 248 246 244 247 249 250 252 254 254 254 255 253 251 249 246 241 240 244 247 251 259 265 271 278 278 276 277 275 274 272 270 270 272 275 284 290 293 297 301 304 306 308 308 305 306 306 311
251 251 252 252 253 254 254 254 253 253 252 252 250 250 249 249 247 245 245 247 249 250 252 253 253 254 253 251 249 244 239 239 242 245 250 257 263 270 276 274 274 278 276 274 272 270 272 274 279 287 290 293 298 302 305 309 312 310 307 305 305 311
251 251 252 254 254 254 254 254 253 252 252 251 251 250 250 249 248 246 243 245 247 249 250 250 252 254 253 252 249 244 240 240 242 245 249 256 262 270 273 269 269 274 274 273 271 271 274 276 282 288 289 293 299 303 306 310 311 309 308 306 306 311
251 252 253 254 254 254 254 253 252 251 251 251 250 250 250 249 248 246 243 242 244 247 249 249 250 253 253 252 250 246 242 241 243 246 250 255 259 264 266 266 269 271 268 269 270 270 272 275 281 285 288 294 299 302 305 309 309 307 308 308 307 311
251 252 252 252 253 253 253 252 251 250 250 250 250 249 249 248 247 246 243 240 239 242 246 247 247 250 252 250 249 246 242 242 244 245 248 254 257 258 260 264 268 271 272 271 270 269 269 272 278 282 288 294 297 300 304 307 308 307 307 309 308 312
249 250 250 250 251 252 252 252 251 251 250 250 249 248 248 248 247 246 244 241 237 237 241 244 244 246 248 247 247 245 242 242 244 245 248 253 256 256 259 262 265 271 276 275 271 268 267 271 276 280 286 292 294 295 300 306 307 306 307 309 309 313
247 249 249 249 250 250 250 251 251 251 250 249 248 247 247 247 247 247 245 242 238 235 236 240 242 243 244 244 244 244 243 242 244 246 247 251 255 257 259 260 260 265 271 274 273 270 268 272 274 277 284 290 292 293 299 305 306 304 305 308 308 312
248 248 248 248 249 250 250 251 251 251 251 251 250 248 247 247 246 246 245 242 238 235 235 237 239 240 240 241 241 242 243 244 244 245 247 249 252 257 261 259 257 260 264 267 272 274 271 272 273 275 283 288 292 294 297 303 305 303 303 306 308 311
246 245 246 248 250 251 252 252 252 253 253 253 252 250 249 248 247 246 244 242 239 236 235 236 237 239 239 240 240 242 243 245 246 246 246 247 250 257 261 259 256 258 261 264 269 272 271 273 273 274 281 287 291 292 293 300 305 302 301 304 306 309
241 243 247 250 253 256 257 258 258 257 257 256 254 252 250 249 248 247 245 243 240 237 235 236 237 238 239 241 240 241 243 245 247 247 246 246 250 257 260 257 258 260 261 263 265 266 268 273 276 277 279 285 290 289 290 299 304 302 301 302 305 307
240 244 249 253 257 262 264 264 264 264 263 261 259 256 253 251 250 248 246 244 242 239 237 237 237 237 239 241 241 241 242 244 246 246 245 245 248 255 259 258 259 260 260 260 258 260 266 273 279 281 279 282 287 287 289 297 302 302 301 301 304 307
242 246 251 255 260 266 267 268 268 267 266 264 263 260 257 254 250 248 246 244 243 241 238 237 237 236 237 240 241 242 243 244 246 246 244 245 248 252 257 257 256 257 258 258 256 259 265 271 277 280 279 280 285 286 288 295 300 301 301 300 301 304
245 250 256 259 262 266 268 270 270 268 267 265 264 262 259 256 253 249 246 244 243 242 239 237 235 234 234 237 239 241 242 244 246 246 244 244 247 251 254 255 254 254 255 257 259 262 265 268 274 276 276 280 284 285 288 293 297 297 297 298 297 298
247 255 261 262 263 266 270 272 272 270 268 266 265 263 261 259 256 253 249 246 244 243 241 237 234 233 233 236 238 239 241 243 245 247 245 244 247 250 252 252 253 254 256 258 261 263 264 266 270 271 273 280 283 284 287 292 294 294 293 295 295 294
251 258 262 264 265 267 272 274 274 273 272 270 267 265 263 260 258 256 252 248 246 243 241 238 235 233 233 235 236 237 240 243 245 247 246 245 246 248 251 252 253 255 258 258 259 260 262 264 267 268 270 277 282 284 288 291 293 292 292 294 293 293
253 258 262 265 266 268 271 274 275 276 276 273 271 268 266 264 260 257 253 249 247 245 242 239 236 235 234 234 234 235 238 241 244 247 246 246 246 247 250 253 255 255 256 257 256 257 260 263 265 266 267 273 279 284 288 290 290 290 292 294 294 295
254 260 264 266 266 267 271 274 276 277 278 276 273 272 271 268 264 258 253 250 248 246 244 241 239 236 235 234 233 233 234 238 241 244 246 248 248 248 251 254 256 257 256 256 256 257 261 265 266 266 267 272 278 283 287 288 288 287 289 293 295 297
258 262 265 266 268 270 273 274 276 279 280 278 277 276 275 273 268 262 255 251 249 249 246 243 241 239 236 235 234 232 232 235 239 242 244 248 250 252 254 254 256 260 260 260 260 261 262 265 267 267 269 273 278 282 285 286 285 284 286 292 296 299
Height
10836 10837 10839 10838 10838 10836 10834 10833 10833 10833 10832 10831 10831 10830 10830 10830 10830 10829 10829 10829 10828 10828 10828 10828 10828 10828 10827 10826 10826 10825 10825 10825 10826 10826 10826 10826 10825 10825 10824 10823 10821 10821 10821 10821 10820 10820 10819 10818 10817 10816 10815 10813 10812 10810 10808 10807 10805 10803 10801 10799 10797 10794
10832 10833 10835 10834 10834 10832 10831 10830 10830 10829 10829 10828 10827 10827 10827 10827 10827 10827 10826 10826 10826 10826 10826 10826 10825 10825 10825 10824 10823 10823 10823 10823 10824 10824 10824 10824 10823 10823 10822 10821 10819 10819 10819 10819 10819 10818 10818 10817 10816 10815 10813 10812 10811 10809 10808 10806 10804 10802 10800 10798 10795 10793
10827 10830 10830 10830 10829 10828 10827 10826 10826 10826 10825 10825 10824 10824 10824 10824 10824 10824 10824 10824 10823 10823 10824 10824 10823 10823 10822 10822 10821 10821 10822 10822 10822 10822 10822 10821 10821 10821 10820 10819 10818 10818 10817 10817 10817 10817 10816 10815 10815 10814 10812 10811 10810 10809 10807 10805 10803 10801 10800 10797 10795 10792
10823 10825 10826 10826 10825 10824 10823 10823 10823 10822 10822 10822 10821 10821 10821 10821 10821 10821 10821 10821 10821 10821 10821 10821 10821 10820 10820 10819 10819 10819 10820 10820 10820 10820 10819 10819 10819 10818 10817 10817 10816 10816 10815 10815 10815 10815 10815 10814 10813 10812 10811 10810 10809 10807 10806 10804 10802 10801 10799 10797 10794 10792
10820 10821 10822 10822 10821 10820 10820 10819 10819 10819 10819 10818 10818 10818 10818 10818 10818 10818 10818 10819 10818 10818 10819 10819 10818 10818 10818 10817 10817 10817 10818 10818 10818 10818 10817 10817 10817 10816 10815 10815 10815 10814 10813 10813 10813 10813 10813 10813 10812 10811 10810 10809 10807 10806 10805 10803 10801 10800 10798 10796 10794 10792
10816 10817 10818 10818 10818 10817 10816 10816 10816 10816 10816 10815 10815 10815 10815 10815 10815 10815 10815 10816 10816 10816 10816 10816 10816 10816 10816 10815 10815 10815 10816 10816 10816 10816 10816 10815 10815 10814 10813 10813 10813 10813 10812 10811 10811 10811 10811 10811 10810 10809 10808 10807 10806 10805 10803 10802 10801 10799 10797 10795 10794 10792
10812 10813 10814 10814 10814 10813 10813 10813 10813 10813 10812 10812 10811 10812 10812 10812 10812 10812 10813 10813 10813 10814 10814 10814 10814 10814 10814 10813 10813 10813 10814 10814 10814 10814 10814 10814 10813 10812 10812 10812 10812 10811 10810 10809 10809 10810 10809 10809 10808 10807 10806 10805 10804 10803 10802 10801 10799 10798 10796 10794 10793 10791
10808 10809 10810 10810 10810 10809 10809 10809 10810 10810 10809 10808 10808 10809 10809 10808 10809 10809 10810 10811 10811 10812 10812 10812 10812 10812 10812 10811 10811 10811 10812 10812 10812 10812 10812 10813 10812 10811 10810 10810 10810 10810 10809 10808 10808 10808 10808 10807 10806 10805 10804 10803 10802 10801 10800 10799 10798 10796 10795 10793 10792 10790
10804 10805 10805 10806 10805 10806 10806 10806 10807 10806 10805 10805 10805 10806 10806 10805 10806 10807 10808 10808 10809 10810 10810 10810 10810 10810 10809 10809 10809 10809 10810 10810 10810 10811 10811 10811 10810 10810 10809 10809 10809 10808 10808 10807 10807 10807 10807 10806 10805 10804 10803 10802 10801 10800 10799 10798 10796 10795 10794 10792 10790 10789
10800 10801 10801 10801 10801 10802 10803 10803 10803 10803 10802 10802 10802 10803 10802 10803 10804 10805 10806 10806 10807 10808 10808 10808 10808 10808 10807 10807 10807 10808 10808 10808 10809 10810 10810 10810 10809 10809 10808 10808 10807 10807 10806 10806 10805 10805 10805 10804 10804 10803 10802 10801 10801 10799 10798 10797 10795 10794 10792 10791 10789 10787
10795 10796 10796 10796 10796 10798 10799 10800 10800 10799 10799 10799 10799 10799 10799 10801 10802 10803 10804 10804 10804 10805 10806 10805 10805 10806 10805 10805 10805 10806 10806 10807 10808 10808 10809 10808 10807 10807 10807 10806 10806 10805 10805 10804 10804 10804 10803 10803 10802 10801 10800 10800 10799 10798 10796 10795 10793 10792 10791 10789 10788 10786
10790 10791 10791 10791 10792 10794 10795 10796 10796 10795 10795 10796 10796 10796 10797 10799 10800 10801 10802 10802 10802 10802 10803 10803 10803 10803 10803 10803 10804 10804 10805 10806 10807 10807 10807 10806 10806 10805 10805 10804 10804 10803 10803 10803 10803 10802 10802 10801 10800 10799 10799 10798 10797 10796 10795 10793 10792 10790 10789 10788 10786 10785
10785 10786 10786 10786 10787 10790 10791 10792 10792 10791 10792 10792 10792 10793 10795 10797 10798 10799 10799 10800 10800 10800 10800 10800 10800 10800 10801 10801 10802 10803 10804 10805 10806 10805 10804 10804 10804 10803 10802 10802 10802 10802 10801 10801 10801 10800 10800 10799 10798 10797 10797 10796 10795 10794 10793 10792 10790 10789 10788 10786 10785 10784
10780 10780 10781 10782 10783 10785 10787 10788 10787 10787 10788 10788 10789 10791 10793 10795 10795 10796 10797 10797 10797 10797 10797 10797 10798 10798 10799 10799 10800 10802 10803 10803 10804 10803 10802 10801 10801 10801 10800 10800 10800 10799 10799 10799 10799 10798 10797 10797 10796 10796 10795 10795 10793 10792 10791 10790 10789 10788 10786 10784 10783 10781
10775 10775 10776 10777 10779 10781 10782 10783 10783 10783 10785 10785 10786 10788 10790 10792 10793 10793 10794 10794 10794 10794 10794 10795 10795 10795 10796 10797 10798 10800 10801 10801 10801 10800 10800 10800 10799 10798 10798 10798 10797 10797 10796 10796 10796 10796 10795 10795 10794 10794 10793 10793 10792 10791 10790 10789 10788 10786 10785 10783 10781 10779
10769 10770 10771 10773 10775 10776 10777 10777 10778 10780 10781 10781 10783 10785 10787 10789 10789 10789 10790 10791 10791 10791 10792 10792 10792 10793 10793 10794 10795 10797 10798 10798 10798 10798 10798 10798 10797 10796 10796 10795 10795 10795 10794 10794 10794 10793 10793 10793 10792 10792 10792 10791 10790 10789 10788 10787 10786 10784 10783 10781 10779 10777
10764 10765 10767 10768 10770 10770 10770 10772 10774 10776 10777 10779 10780 10782 10784 10786 10785 10785 10787 10787 10788 10788 10788 10789 10789 10789 10790 10791 10792 10793 10795 10796 10796 10795 10795 10795 10795 10794 10794 10793 10793 10792 10792 10792 10791 10791 10791 10791 10790 10790 10790 10789 10788 10787 10786 10785 10783 10782 10781 10779 10777 10776
10759 10761 10762 10763 10764 10764 10765 10767 10770 10772 10773 10775 10776 10778 10780 10781 10781 10782 10783 10784 10785 10785 10785 10786 10786 10786 10786 10787 10788 10790 10792 10793 10793 10792 10793 10793 10793 10792 10792 10791 10791 10790 10790 10790 10789 10789 10789 10789 10788 10788 10788 10787 10786 10785 10784 10782 10781 10780 10779 10777 10775 10774
10755 10757 10757 10758 10759 10760 10761 10763 10766 10768 10770 10771 10772 10774 10774 10775 10777 10779 10780 10781 10782 10782 10782 10783 10783 10782 10783 10784 10785 10787 10789 10790 10789 10789 10790 10790 10790 10789 10789 10789 10788 10788 10788 10788 10787 10787 10787 10787 10786 10786 10786 10784 10784 10783 10781 10780 10779 10778 10776 10775 10773 10772
10751 10752 10753 10753 10754 10755 10757 10759 10762 10764 10765 10766 10767 10768 10768 10770 10773 10775 10777 10778 10778 10779 10779 10780 10780 10779 10779 10781 10783 10784 10786 10786 10786 10786 10786 10787 10786 10786 10786 10787 10786 10786 10786 10786 10785 10785 10785 10784 10784 10784 10783 10782 10781 10780 10779 10778 10778 10776 10775 10773 10771 10770
10747 10748 10748 10750 10751 10752 10753 10755 10757 10759 10760 10761 10762 10762 10764 10766 10768 10771 10773 10774 10775 10775 10775 10776 10776 10775 10776 10778 10780 10781 10782 10783 10783 10783 10783 10784 10784 10784 10784 10785 10784 10784 10784 10783 10783 10783 10782 10782 10782 10782 10781 10779 10779 10778 10777 10776 10776 10774 10772 10771 10769 10767
10743 10744 10746 10747 10747 10748 10749 10751 10752 10754 10755 10755 10757 10758 10759 10761 10764 10766 10768 10770 10771 10771 10771 10772 10773 10773 10773 10775 10776 10777 10779 10779 10780 10780 10781 10782 10782 10782 10782 10782 10782 10782 10782 10781 10781 10781 10780 10780 10779 10779 10778 10777 10776 10775 10774 10774 10773 10772 10770 10769 10767 10765
10740 10741 10742 10743 10743 10743 10745 10746 10747 10749 10749 10750 10752 10754 10754 10756 10758 10761 10763 10765 10767 10767 10767 10769 10770 10769 10769 10771 10772 10774 10776 10776 10776 10777 10779 10779 10779 10780 10779 10780 10780 10779 10779 10779 10779 10778 10778 10777 10777 10776 10775 10774 10773 10772 10772 10771 10770 10769 10768 10767 10765 10763
10737 10738 10738 10738 10738 10739 10740 10741 10742 10744 10744 10746 10747 10748 10749 10751 10753 10755 10757 10759 10761 10762 10763 10764 10766 10764 10764 10766 10767 10769 10771 10772 10772 10774 10775 10776 10776 10777 10777 10777 10777 10776 10776 10776 10776 10776 10775 10774 10774 10773 10773 10771 10770 10769 10769 10768 10768 10767 10766 10765 10763 10761
10733 10734 10734 10734 10734 10734 10735 10736 10737 10739 10739 10740 10742 10743 10745 10746 10747 10749 10750 10753 10755 10757 10758 10758 10759 10758 10758 10760 10762 10764 10766 10767 10768 10769 10771 10772 10772 10774 10774 10775 10775 10773 10773 10773 10773 10772 10772 10771 10771 10770 10770 10769 10768 10767 10766 10765 10765 10764 10763 10762 10761 10759
10730 10730 10730 10730 10730 10730 10731 10731 10733 10734 10734 10735 10737 10739 10740 10741 10742 10743 10744 10746 10749 10752 10752 10752 10752 10752 10752 10755 10757 10759 10760 10762 10763 10765 10767 10768 10768 10770 10771 10772 10771 10770 10770 10770 10770 10769 10769 10768 10768 10767 10767 10766 10765 10764 10763 10763 10762 10762 10760 10759 10758 10756
10726 10726 10726 10726 10727 10727 10728 10728 10729 10729 10730 10731 10733 10735 10736 10736 10737 10737 10737 10739 10743 10745 10746 10746 10745 10745 10747 10750 10753 10754 10756 10757 10759 10761 10763 10764 10764 10766 10767 10768 10768 10766 10766 10767 10766 10766 10765 10765 10765 10764 10764 10763 10762 10762 10761 10760 10759 10759 10758 10756 10755 10753
10723 10723 10723 10723 10724 10725 10725 10725 10726 10726 10727 10728 10729 10730 10731 10732 10732 10730 10731 10733 10737 10739 10741 10740 10738 10740 10744 10747 10750 10751 10753 10754 10756 10758 10759 10760 10761 10762 10764 10764 10763 10763 10762 10763 10763 10762 10762 10762 10762 10761 10761 10760 10759 10758 10758 10757 10756 10755 10754 10753 10751 10749
10719 10719 10719 10720 10721 10722 10722 10723 10723 10723 10723 10724 10725 10726 10727 10727 10726 10725 10726 10729 10731 10733 10735 10733 10733 10739 10744 10746 10747 10749 10749 10750 10752 10754 10755 10756 10757 10758 10760 10760 10759 10759 10759 10759 10759 10759 10758 10758 10759 10758 10758 10757 10756 10755 10755 10754 10753 10752 10750 10748 10746 10745
10715 10716 10717 10718 10719 10719 10719 10720 10720 10720 10720 10720 10720 10721 10722 10722 10722 10721 10721 10724 10725 10727 10728 10728 10731 10738 10742 10743 10744 10745 10746 10747 10748 10750 10751 10753 10754 10755 10756 10756 10755 10755 10755 10755 10756 10756 10755 10755 10755 10755 10754 10754 10753 10752 10752 10751 10750 10749 10747 10744 10741 10739
10713 10714 10715 10716 10716 10716 10717 10717 10716 10716 10716 10716 10716 10716 10717 10716 10715 10715 10716 10719 10720 10720 10722 10724 10727 10733 10737 10738 10740 10741 10742 10743 10744 10746 10748 10749 10750 10751 10752 10752 10752 10751 10751 10751 10752 10752 10752 10752 10752 10751 10751 10750 10750 10749 10749 10748 10747 10746 10744 10741 10738 10735
10711 10712 10713 10713 10713 10714 10714 10714 10713 10712 10712 10712 10711 10711 10712 10711 10710 10710 10712 10715 10715 10715 10717 10720 10723 10727 10731 10733 10735 10737 10738 10739 10740 10742 10745 10746 10746 10747 10747 10747 10747 10747 10747 10747 10747 10748 10749 10748 10748 10748 10747 10747 10747 10746 10746 10745 10744 10743 10741 10739 10736 10733
10709 10710 10710 10710 10711 10711 10711 10711 10709 10709 10708 10708 10708 10707 10707 10706 10705 10707 10710 10711 10710 10710 10712 10716 10719 10722 10725 10728 10730 10732 10733 10735 10736 10739 10741 10742 10742 10743 10743 10743 10743 10743 10742 10743 10744 10744 10744 10744 10744 10744 10744 10744 10743 10743 10743 10742 10741 10740 10738 10736 10733 10730
10707 10707 10707 10708 10708 10708 10708 10707 10706 10705 10705 10704 10704 10704 10703 10703 10702 10704 10706 10706 10705 10706 10708 10711 10714 10717 10720 10722 10725 10727 10729 10731 10732 10735 10737 10738 10738 10739 10739 10739 10739 10739 10739 10739 10740 10740 10739 10739 10740 10741 10741 10740 10740 10740 10740 10739 10737 10736 10735 10732 10729 10726
10704 10704 10704 10705 10705 10705 10704 10703 10703 10702 10702 10701 10700 10700 10700 10700 10700 10700 10701 10701 10700 10701 10703 10707 10711 10713 10715 10717 10721 10724 10726 10728 10729 10731 10733 10733 10734 10735 10735 10735 10735 10736 10736 10735 10735 10735 10735 10736 10736 10737 10737 10737 10737 10736 10736 10735 10734 10733 10731 10729 10726 10723
10700 10701 10702 10702 10702 10702 10701 10700 10700 10699 10698 10698 10697 10696 10696 10696 10696 10697 10697 10696 10696 10697 10700 10704 10707 10709 10711 10714 10717 10720 10723 10725 10726 10727 10729 10729 10729 10730 10731 10731 10731 10732 10732 10731 10731 10731 10732 10732 10733 10734 10733 10733 10733 10732 10732 10731 10730 10729 10728 10726 10723 10720
10698 10698 10699 10699 10700 10699 10698 10697 10697 10696 10696 10695 10694 10693 10693 10692 10692 10693 10693 10692 10693 10694 10697 10700 10703 10704 10707 10711 10714 10717 10719 10721 10722 10724 10725 10726 10726 10726 10727 10727 10728 10728 10728 10727 10727 10728 10728 10729 10729 10730 10730 10730 10729 10728 10728 10727 10725 10724 10723 10722 10720 10717